Wind_Speed
10 9 10 10 5 3 3 2 6 6 3 6 3 7 4 6 8 4 4 12 9 7 4 7 9 9 9 8 8 8 7 7 7 8 8 7 8 8 8 8 8 8 9 9 9 9 8 8 8
12 9 8 10 5 6 4 4 2 3 2 4 3 2 5 12 8 9 6 11 11 8 6 6 9 10 10 9 7 7 7 8 9 8 8 7 8 8 8 8 8 9 10 11 11 11 11 11 10
12 10 7 6 5 4 9 5 4 5 2 4 6 8 8 9 1 5 10 10 10 8 7 9 9 9 9 8 7 8 8 8 8 7 7 7 7 7 7 7 8 11 13 14 15 15 15 15 15
12 9 7 10 8 7 10 10 4 7 5 8 10 11 14 1 6 5 7 9 7 7 9 10 10 10 9 9 9 10 9 8 7 7 6 6 5 5 7 9 10 13 14 16 17 18 18 18 18
14 10 10 9 7 5 8 9 7 12 12 9 9 10 11 2 7 7 5 7 8 9 9 10 10 10 10 10 11 9 8 7 7 5 4 3 4 6 9 11 14 16 18 19 20 21 21 21 21
16 12 10 12 6 6 9 8 13 12 7 6 4 8 10 6 7 6 7 7 9 9 7 9 10 10 11 11 9 9 8 6 4 2 2 3 6 9 12 15 17 20 22 23 22 23 24 23 23
18 16 14 15 12 6 23 3 8 9 7 4 5 10 12 5 7 6 10 8 8 9 9 9 10 11 11 10 10 8 6 3 1 1 3 6 8 12 15 18 20 21 22 22 23 22 22 22 20
20 18 18 16 7 9 13 6 10 11 7 9 10 13 10 4 8 12 9 8 9 10 9 9 10 11 10 11 9 7 4 3 2 4 6 9 12 15 18 20 20 23 22 21 21 21 20 20 20
21 20 21 15 5 9 8 2 7 19 19 6 9 9 3 6 7 8 5 8 9 10 10 10 10 9 10 10 8 5 5 5 4 6 9 11 13 15 18 19 23 23 20 20 20 19 18 19 20
22 24 19 13 8 4 6 9 17 19 18 16 6 9 2 3 5 8 5 5 8 9 9 10 10 10 9 8 7 6 7 8 8 9 11 13 16 17 19 21 24 22 21 21 20 19 19 20 20
22 24 18 15 9 8 15 16 7 17 13 4 12 3 4 5 6 7 6 6 7 8 10 8 10 10 9 8 7 7 11 12 12 11 10 14 17 19 20 23 24 22 21 20 19 20 21 19 18
19 19 18 16 10 12 13 19 15 18 13 8 5 10 6 5 5 5 5 5 7 6 8 11 11 10 9 9 9 9 13 14 13 7 10 13 18 19 21 24 23 22 21 20 19 20 20 18 18
8 11 16 16 14 12 14 15 12 13 17 9 9 14 10 8 3 7 7 7 8 7 8 9 8 10 12 10 9 9 13 14 17 11 12 17 20 20 21 24 22 20 20 19 18 19 20 20 20
10 12 12 11 11 11 13 15 10 11 21 15 16 15 13 9 5 8 6 8 7 7 7 8 8 10 10 7 8 10 15 17 15 14 20 20 21 21 21 23 21 20 19 18 18 19 21 21 20
9 12 11 9 13 13 12 13 8 8 14 18 16 17 15 10 10 10 3 6 8 5 6 7 10 11 11 10 10 9 14 13 14 13 9 14 19 20 22 22 20 19 18 18 18 19 21 22 19
11 12 12 9 6 11 14 17 13 10 9 11 14 18 19 14 14 12 12 9 8 9 5 5 8 12 13 12 10 11 11 10 8 11 16 17 18 20 21 18 18 17 16 18 19 20 20 19 19
6 11 15 15 17 7 16 16 15 16 12 15 16 19 21 20 20 18 16 13 12 12 11 7 11 12 15 14 11 11 7 7 7 10 13 16 16 18 17 16 15 15 16 18 20 19 18 18 19
9 15 15 15 20 19 19 18 15 20 14 17 19 17 21 23 22 21 16 16 13 15 15 15 18 22 18 18 14 13 11 9 8 10 12 13 16 16 15 15 15 16 17 18 18 16 16 17 18
15 11 12 15 19 17 19 15 4 18 15 18 22 22 22 21 20 21 20 21 17 18 20 17 17 20 24 21 17 15 13 13 11 11 12 14 14 14 14 14 15 16 17 17 16 14 14 15 16
6 6 13 13 15 9 11 21 16 3 6 16 21 25 22 23 23 23 23 22 13 14 13 18 21 24 32 27 22 19 16 15 12 12 13 12 12 14 13 13 14 15 17 17 15 13 12 14 14
8 9 7 8 11 7 3 24 19 11 4 8 14 23 34 32 29 31 29 27 25 17 19 19 24 33 37 22 27 21 16 14 13 12 12 10 11 12 13 13 15 16 17 16 15 13 12 12 14
12 6 8 8 12 7 7 4 27 23 17 12 8 12 17 22 29 44 40 37 35 28 28 18 24 34 37 27 30 23 17 15 13 11 9 11 12 12 12 13 15 16 15 15 14 14 14 12 12
10 6 12 10 8 7 6 9 18 23 24 25 17 13 14 22 38 47 43 40 41 38 32 28 18 11 18 15 28 23 18 14 13 9 8 10 11 11 12 14 15 16 16 15 15 14 14 14 13
12 9 11 14 5 5 10 6 11 15 17 18 20 20 13 18 27 36 42 45 44 36 28 34 29 25 14 10 20 21 16 15 13 7 8 9 11 10 12 14 15 16 16 15 14 14 13 12 13
10 9 5 6 6 3 8 5 7 5 11 16 18 23 19 13 11 15 34 43 40 25 20 16 28 30 21 18 18 18 14 16 10 7 8 9 10 11 13 14 16 16 15 15 14 14 13 12 12
5 10 3 1 0 4 3 5 3 5 10 17 23 24 12 19 15 14 12 8 18 20 24 23 14 20 20 19 20 17 15 16 7 6 7 8 8 10 12 14 16 17 15 14 14 14 13 13 13
4 6 5 1 1 0 1 3 4 5 8 15 14 12 12 12 14 15 14 15 18 18 24 17 13 6 11 15 16 20 19 14 8 5 6 5 7 10 12 14 16 17 15 14 13 14 13 12 14
7 6 3 2 1 1 2 4 2 6 4 9 10 12 14 11 9 15 18 15 13 13 13 15 14 21 20 10 13 14 18 11 13 11 9 6 7 9 12 13 16 17 16 16 14 13 12 11 12
10 3 1 1 2 5 1 3 11 3 4 4 5 10 11 8 9 14 19 19 20 15 12 9 8 3 5 11 14 13 18 16 17 18 13 9 10 10 12 14 16 17 18 17 15 14 12 11 11
8 8 6 1 2 5 2 7 5 2 8 6 8 8 9 7 8 13 22 24 26 23 15 15 16 14 9 9 11 16 17 15 18 22 17 13 12 11 13 14 15 17 17 17 15 14 12 11 11
Wind_Direction
283 300 315 327 313 281 317 32 38 125 345 67 36 192 293 303 287 274 227 183 187 153 151 194 186 183 192 192 186 176 164 158 151 142 135 122 108 94 81 69 58 46 36 27 18 6 353 342 332
269 277 296 302 272 287 355 35 44 340 177 98 86 257 301 316 273 270 198 190 189 163 158 189 186 177 185 185 176 169 164 156 145 139 123 106 89 77 64 50 36 22 16 9 2 354 349 340 327
262 267 283 279 260 301 333 358 131 188 181 281 293 314 321 325 280 168 165 189 185 173 173 178 175 175 177 175 170 167 155 149 140 122 105 87 70 52 37 22 9 1 355 349 343 340 333 328 322
251 252 258 258 261 286 309 323 172 216 213 253 301 299 340 318 129 171 175 167 156 164 170 175 173 175 172 171 168 157 152 139 121 110 99 84 58 33 12 357 352 347 339 333 330 329 325 321 316
237 242 238 261 265 306 323 279 275 193 229 244 272 291 345 167 142 167 148 141 149 162 170 176 176 175 172 164 157 154 141 131 126 123 101 54 22 360 349 342 340 334 329 325 326 323 318 313 308
219 233 239 243 228 297 341 298 272 202 232 239 232 300 335 167 146 157 138 151 146 149 171 172 176 174 165 158 159 150 143 138 134 108 38 359 346 336 339 335 333 329 324 322 322 317 313 312 310
212 232 238 247 272 303 340 244 253 183 222 212 289 289 312 170 160 157 148 147 150 149 162 173 174 167 160 165 164 156 148 144 146 322 319 324 329 333 335 335 331 324 320 320 315 312 315 313 312
208 227 235 247 271 5 360 104 188 198 192 319 306 258 302 193 162 163 169 160 157 156 160 165 165 167 171 169 170 169 177 218 256 291 315 324 328 330 334 331 327 326 324 319 318 321 317 315 313
208 224 237 237 223 73 14 113 262 200 225 307 279 230 258 192 156 177 159 172 163 164 163 165 176 183 178 182 187 207 229 259 286 304 312 317 320 326 329 329 335 332 331 328 324 322 320 317 312
212 227 241 243 235 342 326 302 280 226 229 272 251 237 316 209 147 147 143 149 150 161 173 176 180 181 187 198 222 251 268 279 290 298 308 320 327 330 331 337 339 335 335 332 330 327 324 320 316
217 232 246 248 273 299 309 326 277 235 229 313 253 286 330 205 190 150 123 138 125 152 181 185 194 193 196 214 238 272 282 285 287 290 321 336 335 333 335 342 339 338 335 331 333 331 326 320 321
234 238 252 264 249 275 290 305 271 262 232 327 244 236 311 273 238 184 151 142 138 163 175 194 211 215 215 237 254 274 284 282 283 291 329 343 338 337 339 342 339 339 332 334 336 330 323 328 329
264 240 235 257 274 286 307 300 280 262 225 260 216 224 260 243 266 191 201 178 177 182 190 192 214 230 235 241 262 277 290 295 290 293 324 335 336 337 339 339 339 335 334 338 334 330 330 332 333
282 286 265 271 286 291 310 301 278 246 239 243 234 228 229 226 292 303 231 196 206 204 205 195 219 238 247 263 288 306 308 298 278 299 314 313 324 333 335 336 338 338 335 336 337 335 333 334 334
283 284 263 268 283 282 294 305 301 286 249 241 245 232 225 233 277 318 341 246 215 245 250 236 237 236 241 256 275 301 316 310 295 306 307 314 322 329 331 337 339 340 334 334 341 335 334 333 334
262 286 301 345 333 272 277 283 287 261 244 247 251 236 229 251 270 273 301 257 252 229 214 266 268 251 249 260 282 306 316 320 296 295 311 317 322 329 330 337 341 337 334 341 339 338 335 330 331
270 297 331 340 19 341 338 336 256 243 256 271 273 240 232 249 273 271 294 271 269 243 217 215 273 278 256 266 282 296 305 312 310 310 310 312 320 325 332 340 336 335 340 341 336 336 331 331 330
347 329 324 335 350 334 340 338 247 249 256 270 269 260 252 267 278 278 292 266 270 255 245 252 264 274 271 263 276 292 295 288 295 306 309 314 323 329 339 339 337 342 341 338 332 333 331 331 329
314 332 321 336 359 336 350 16 1 234 255 267 256 251 263 273 277 274 263 256 255 287 263 246 256 261 268 264 269 286 291 286 295 308 319 320 323 338 346 337 339 343 337 333 326 333 332 329 328
306 317 316 329 354 355 56 53 58 24 277 276 269 267 264 264 264 271 258 258 269 269 265 257 252 259 268 270 260 269 278 283 295 305 318 324 336 346 341 336 339 339 332 324 329 334 331 324 324
330 333 4 353 357 43 66 47 39 50 344 270 249 260 261 264 265 259 255 251 248 253 242 243 250 261 251 244 253 257 269 280 294 305 316 329 345 342 336 340 339 336 328 326 328 328 327 328 325
346 340 336 337 342 25 34 95 53 49 38 27 329 290 254 259 263 245 252 242 242 255 265 261 278 284 255 221 251 251 260 273 287 296 326 338 345 335 337 340 335 332 325 325 323 324 326 329 327
341 356 360 333 323 7 72 87 46 52 40 29 12 326 272 252 254 249 247 239 238 249 271 253 285 293 255 210 251 247 254 274 275 289 337 342 328 327 342 340 332 328 325 324 323 326 324 327 326
319 322 325 332 297 52 52 117 57 52 37 35 21 8 339 268 248 243 240 244 244 253 273 268 258 282 297 270 262 249 250 266 265 308 337 337 323 330 341 336 331 327 322 321 322 321 324 325 321
4 8 13 15 23 235 338 71 142 3 342 339 348 12 13 343 286 259 245 253 265 271 335 320 260 261 278 259 248 249 246 258 260 317 335 323 317 333 337 329 328 326 322 316 321 320 318 320 318
25 46 79 143 209 278 32 130 217 323 334 339 329 321 17 45 57 44 18 304 290 260 291 310 253 241 263 259 249 234 240 251 251 310 325 320 318 329 328 328 327 323 318 316 318 317 317 320 318
334 38 44 77 42 302 106 167 236 283 334 339 349 357 348 348 330 13 11 2 342 333 313 294 289 266 293 287 274 241 223 239 253 279 293 310 324 326 322 323 322 322 322 319 316 316 311 313 315
23 38 354 51 123 298 267 254 291 292 313 27 358 351 23 18 19 348 348 342 343 339 342 316 294 295 297 277 286 232 223 222 270 256 258 286 310 322 316 320 323 326 324 321 317 308 302 309 310
318 341 273 157 166 160 207 252 313 272 234 16 349 4 11 5 18 5 350 347 341 329 327 6 346 313 260 265 267 217 219 232 216 242 247 267 288 306 317 324 329 327 323 317 308 302 302 304 303
130 94 98 78 203 224 234 267 182 236 254 280 303 309 337 312 333 342 350 348 349 344 314 317 299 323 317 285 258 231 233 247 238 238 243 254 272 291 311 321 324 322 320 311 306 301 300 296 294
Height
3177 3177 3176 3175 3178 3174 3173 3174 3172 3171 3170 3169 3169 3171 3173 3171 3171 3173 3169 3170 3171 3170 3172 3174 3175 3176 3179 3180 3181 3182 3182 3183 3183 3183 3184 3183 3182 3181 3180 3179 3179 3178 3176 3175 3174 3173 3171 3170 3168
3175 3176 3176 3174 3175 3172 3173 3173 3172 3171 3172 3171 3172 3172 3173 3172 3169 3169 3169 3169 3170 3170 3172 3174 3175 3177 3179 3181 3182 3183 3183 3183 3184 3184 3184 3184 3183 3182 3181 3181 3179 3178 3177 3175 3174 3172 3171 3170 3168
3174 3175 3176 3173 3173 3172 3172 3174 3175 3173 3174 3174 3174 3174 3174 3171 3170 3169 3169 3171 3172 3172 3173 3174 3176 3178 3180 3182 3183 3184 3184 3185 3185 3185 3185 3185 3184 3183 3182 3181 3180 3178 3177 3175 3174 3171 3170 3168 3166
3173 3175 3176 3172 3172 3172 3171 3174 3177 3175 3175 3173 3173 3173 3173 3172 3171 3171 3171 3171 3171 3172 3173 3175 3177 3179 3181 3182 3184 3185 3186 3186 3187 3187 3186 3185 3184 3183 3182 3182 3180 3178 3177 3175 3173 3170 3168 3165 3163
3171 3173 3173 3171 3171 3171 3171 3173 3175 3175 3175 3175 3175 3173 3175 3173 3171 3171 3171 3171 3172 3174 3175 3177 3178 3180 3181 3183 3185 3186 3186 3187 3187 3187 3187 3186 3185 3184 3183 3181 3179 3177 3175 3172 3170 3167 3164 3161 3159
3169 3171 3171 3170 3169 3171 3173 3173 3174 3174 3175 3175 3174 3173 3175 3174 3171 3171 3172 3173 3173 3174 3177 3178 3179 3180 3182 3184 3185 3186 3187 3187 3188 3188 3187 3187 3186 3184 3182 3180 3178 3175 3172 3170 3167 3164 3161 3158 3156
3168 3169 3169 3169 3171 3172 3171 3168 3172 3174 3176 3176 3175 3174 3174 3173 3171 3171 3171 3172 3173 3174 3177 3179 3180 3182 3183 3185 3186 3187 3188 3188 3188 3188 3187 3186 3184 3183 3181 3178 3175 3173 3169 3167 3164 3161 3158 3155 3152
3166 3167 3167 3168 3172 3173 3170 3170 3173 3174 3175 3173 3172 3173 3173 3174 3171 3172 3172 3172 3173 3175 3177 3179 3181 3183 3184 3185 3186 3187 3187 3188 3187 3187 3186 3185 3183 3182 3179 3177 3174 3170 3167 3164 3161 3158 3155 3152 3149
3164 3166 3164 3167 3171 3173 3173 3173 3174 3174 3174 3175 3173 3172 3171 3172 3171 3171 3173 3173 3173 3176 3177 3179 3181 3183 3184 3185 3186 3187 3187 3187 3186 3185 3185 3184 3182 3180 3177 3175 3171 3167 3164 3161 3159 3157 3154 3150 3147
3162 3162 3164 3168 3170 3170 3172 3174 3173 3174 3177 3175 3173 3172 3171 3170 3171 3173 3173 3174 3174 3175 3177 3179 3180 3182 3183 3184 3185 3186 3186 3185 3185 3184 3183 3182 3180 3177 3174 3172 3168 3165 3161 3158 3156 3155 3151 3148 3146
3159 3161 3165 3166 3168 3168 3168 3170 3169 3172 3174 3171 3172 3171 3170 3171 3172 3172 3173 3173 3173 3175 3176 3177 3179 3180 3182 3183 3183 3184 3184 3183 3183 3182 3181 3179 3177 3174 3172 3169 3166 3162 3159 3156 3153 3151 3149 3148 3144
3160 3161 3163 3163 3165 3165 3166 3167 3166 3166 3168 3170 3168 3171 3171 3172 3173 3172 3172 3172 3173 3174 3174 3176 3178 3180 3180 3181 3182 3183 3182 3181 3181 3179 3178 3177 3175 3171 3169 3167 3163 3159 3157 3154 3151 3150 3149 3144 3140
3158 3160 3161 3161 3161 3162 3163 3163 3163 3163 3166 3165 3165 3168 3171 3171 3171 3170 3170 3171 3171 3172 3173 3175 3176 3178 3179 3180 3181 3181 3180 3179 3179 3178 3176 3174 3172 3169 3167 3164 3160 3157 3154 3152 3150 3148 3145 3142 3137
3157 3157 3158 3159 3159 3159 3160 3159 3160 3161 3162 3162 3162 3163 3167 3170 3168 3168 3167 3167 3169 3170 3172 3173 3174 3175 3176 3178 3179 3179 3178 3177 3175 3173 3173 3171 3169 3166 3164 3162 3157 3154 3152 3150 3148 3145 3142 3140 3137
3155 3155 3156 3158 3158 3158 3158 3157 3157 3159 3159 3160 3160 3159 3164 3166 3164 3163 3163 3164 3165 3167 3169 3170 3172 3173 3174 3175 3176 3175 3174 3172 3171 3170 3170 3168 3166 3164 3162 3159 3155 3153 3151 3149 3145 3143 3141 3137 3136
3154 3155 3156 3156 3155 3155 3156 3156 3158 3158 3158 3159 3159 3159 3159 3161 3161 3160 3161 3162 3163 3163 3165 3168 3170 3172 3173 3172 3172 3171 3171 3168 3167 3166 3166 3165 3163 3160 3159 3156 3152 3150 3148 3144 3143 3142 3139 3135 3132
3154 3154 3155 3154 3154 3154 3154 3151 3153 3154 3156 3157 3156 3156 3157 3156 3156 3157 3158 3160 3161 3163 3165 3167 3169 3170 3172 3171 3170 3169 3167 3166 3163 3162 3163 3161 3159 3157 3155 3152 3150 3148 3145 3143 3141 3140 3137 3133 3130
3155 3154 3154 3154 3154 3152 3151 3147 3146 3150 3153 3155 3154 3154 3153 3153 3153 3153 3154 3155 3160 3161 3163 3165 3168 3171 3171 3171 3170 3168 3167 3164 3162 3159 3158 3158 3156 3154 3151 3149 3147 3145 3143 3141 3139 3138 3134 3131 3128
3154 3153 3152 3153 3154 3153 3151 3147 3141 3147 3150 3151 3151 3150 3151 3149 3151 3151 3153 3155 3157 3159 3161 3164 3167 3168 3168 3168 3169 3168 3166 3163 3161 3157 3154 3154 3153 3150 3148 3146 3144 3142 3141 3140 3138 3136 3132 3129 3127
3153 3153 3151 3152 3153 3153 3150 3148 3146 3149 3152 3153 3152 3150 3149 3148 3148 3148 3150 3152 3156 3159 3160 3163 3162 3162 3162 3165 3168 3166 3165 3163 3160 3157 3152 3150 3148 3147 3145 3143 3141 3140 3139 3138 3135 3133 3130 3127 3125
3151 3152 3152 3151 3151 3152 3150 3150 3149 3151 3150 3148 3148 3148 3149 3148 3147 3146 3148 3149 3152 3153 3153 3152 3156 3159 3150 3154 3161 3164 3163 3161 3159 3155 3151 3146 3144 3143 3142 3141 3139 3138 3137 3134 3132 3130 3129 3126 3123
3150 3150 3150 3149 3150 3151 3150 3152 3152 3151 3149 3146 3145 3142 3142 3143 3144 3145 3146 3147 3149 3152 3148 3149 3153 3150 3145 3141 3156 3161 3160 3158 3157 3152 3148 3143 3141 3141 3140 3138 3137 3135 3134 3131 3129 3127 3125 3124 3122
3150 3149 3148 3148 3149 3149 3150 3150 3154 3151 3147 3142 3140 3138 3136 3136 3140 3143 3144 3146 3146 3147 3149 3149 3152 3149 3143 3139 3148 3154 3155 3156 3153 3151 3145 3141 3139 3139 3138 3136 3135 3133 3131 3128 3126 3124 3123 3120 3118
3148 3147 3147 3146 3146 3148 3149 3149 3154 3149 3147 3144 3141 3137 3134 3131 3131 3135 3141 3141 3144 3148 3151 3146 3146 3146 3146 3144 3146 3148 3153 3152 3152 3147 3143 3138 3138 3137 3136 3135 3133 3131 3128 3126 3123 3121 3120 3118 3115
3147 3146 3146 3149 3149 3151 3148 3148 3150 3148 3146 3143 3143 3142 3135 3131 3131 3133 3138 3141 3142 3145 3140 3134 3131 3138 3141 3141 3141 3144 3148 3148 3149 3143 3139 3135 3136 3135 3135 3133 3131 3130 3126 3122 3120 3118 3117 3115 3113
3147 3147 3147 3152 3153 3149 3148 3149 3149 3146 3145 3143 3142 3142 3142 3139 3137 3138 3141 3143 3141 3137 3137 3132 3129 3133 3136 3136 3137 3137 3143 3144 3144 3139 3135 3135 3135 3133 3133 3131 3129 3128 3124 3119 3116 3115 3113 3111 3110
3147 3147 3149 3148 3149 3149 3149 3148 3146 3144 3144 3142 3142 3140 3141 3140 3139 3138 3140 3138 3136 3132 3130 3133 3129 3131 3132 3133 3131 3132 3137 3139 3137 3135 3134 3134 3133 3133 3131 3128 3126 3125 3122 3117 3114 3113 3111 3108 3107
3147 3148 3148 3148 3150 3151 3149 3147 3145 3143 3145 3145 3143 3141 3142 3140 3139 3138 3138 3136 3135 3134 3132 3128 3127 3125 3123 3124 3125 3127 3132 3133 3135 3135 3134 3132 3131 3130 3129 3126 3123 3120 3117 3114 3112 3110 3109 3106 3105
3146 3145 3146 3148 3148 3149 3151 3147 3144 3144 3143 3144 3143 3143 3142 3140 3139 3138 3136 3133 3132 3128 3125 3123 3122 3118 3119 3120 3121 3122 3126 3128 3128 3132 3131 3129 3129 3129 3127 3123 3119 3116 3114 3111 3110 3108 3106 3104 3104
3145 3144 3144 3145 3147 3145 3145 3144 3140 3140 3140 3141 3141 3141 3141 3139 3136 3135 3133 3131 3128 3125 3122 3120 3121 3118 3117 3117 3118 3119 3122 3122 3126 3128 3127 3126 3127 3126 3123 3119 3116 3114 3110 3109 3106 3104 3103 3103 3102